[[{"header":{"parameterUnit":"m.s-1","parameterCategory":2,"la1":30.2991,"la2":30.254,"lo1":-89.0895,"lo2":-89.0444,"dy":0.0017,"dx":0.0017,"nx":28,"ny":28,"refTime":"2025-11-08T09:00:00:Z","depth":"0","parameterNumber":2,"parameterNumberName":"U-component_of_CURRENTS"},"data":[0,0,0,0,0,0,0,0,0,0,0,0,0,0,0,0,0,0,0,0,0,0,0,0,0,0,0,0,0,0,0,0,0,0,0,0,0,0,0,0,0,0,0,0,0,0,0,0,0,0,0,0,0,0,0,0,0,0,0.1286,0.1287,0,0.132,0.132,0.132,0.1325,0.1325,0.1325,0.1325,0.1325,0.1325,0.1326,0,0,0,0,0,0,0,0,0,0,0,0,0,0.1197,0.1199,0.1286,0.1287,0.1288,0.132,0.132,0.132,0.1325,0.1325,0.1325,0.1325,0.1325,0.1325,0.1326,0,0,0,0,0,0,0,0,0,0,0,0,0,0.1231,0.1199,0.1286,0.1296,0.1298,0.132,0.132,0.132,0.1325,0.1325,0.1325,0.1325,0.1325,0.1325,0.1326,0.1326,0,0,0.1326,0.1326,0,0,0,0,0,0,0,0,0.1229,0.1234,0.1294,0.1296,0.1297,0.1321,0.1289,0.1322,0.1325,0.1312,0.1325,0.1325,0.1323,0.1323,0.1326,0.1326,0.1326,0.1326,0.1326,0.1326,0.1326,0,0,0,0,0,0,0,0.1227,0.1232,0.1297,0.1295,0.1297,0.1289,0.1294,0.1295,0.1314,0.1313,0.1314,0.1323,0.1323,0.1326,0.1326,0.1326,0.1326,0.1326,0.1326,0.1326,0.1338,0.1339,0,0,0,0,0,0,0.1231,0.123,0.1296,0.1298,0.1266,0.1291,0.1296,0.1311,0.1315,0.1317,0.1323,0.1323,0.1326,0.1326,0.1326,0.1334,0.1326,0.1326,0.1326,0.1338,0.1338,0.1339,0,0,0,0,0,0,0.1229,0.1236,0.1294,0.1267,0.1274,0.1293,0.1309,0.1312,0.1316,0.1323,0.1324,0.1325,0.1326,0.1326,0.1333,0.1334,0.1326,0.1326,0.1338,0.1338,0.1339,0.1347,0,0,0,0,0,0,0.1226,0.1235,0.1244,0.1267,0.1276,0.1308,0.131,0.1313,0.1323,0.1323,0.1326,0.1326,0.1326,0.1333,0.1333,0.1334,0.1326,0.1337,0.1338,0.1338,0.1346,0.1348,0.1349,0,0,0,0,0,0.1223,0.1239,0.1244,0.1252,0.1288,0.1308,0.1311,0.1323,0.1323,0.1325,0.1331,0.1325,0.1337,0.1334,0.1334,0.1334,0.1337,0.1338,0.1338,0.1346,0.1347,0.1349,0,0,0,0,0,0,0.1201,0.1242,0.1248,0.1275,0.129,0.131,0.1317,0.1323,0.133,0.133,0.1331,0.1332,0.1339,0.1337,0.1333,0.134,0.1335,0.1336,0.1341,0.1342,0.1343,0.1348,0.1326,0,0,0,0,0,0.1202,0.1224,0.1254,0.1271,0.1282,0.1298,0.1307,0.1315,0.1327,0.1329,0.1332,0.1336,0.1342,0.1342,0.1346,0.135,0.1425,0.135,0.1351,0.1352,0.1356,0.1466,0.1478,0.1341,0.1341,0.1341,0,0,0.1198,0.1222,0.1235,0.1268,0.1281,0.1297,0.1302,0.1318,0.1326,0.1328,0.1335,0.1341,0.1345,0.1351,0.1353,0.1349,0.1443,0.1353,0.1354,0.1357,0.1468,0.1482,0.1494,0.1342,0.1341,0.1341,0,0,0.1202,0.1223,0.1244,0.126,0.1286,0.1294,0.1299,0.132,0.1324,0.1335,0.134,0.1348,0.1353,0.1359,0.1362,0.1372,0.1448,0.137,0.1378,0.1484,0.1497,0.1509,0.1683,0.1711,0.1369,0.1369,0.1369,0,0.1193,0.1229,0.1249,0.1271,0.1284,0.1294,0.131,0.1316,0.1334,0.1346,0.1337,0.1369,0.1356,0.1384,0.1376,0.1374,0.1478,0.1371,0.1489,0.1502,0.1515,0.1689,0.1719,0.1369,0.1369,0.1369,0.1369,0,0.1217,0.1241,0.1253,0.1285,0.1296,0.1312,0.1326,0.1335,0.1338,0.1352,0.138,0.138,0.141,0.1393,0.1379,0.1448,0.1515,0.1484,0.149,0.153,0.1711,0.1743,0.137,0.137,0.137,0.1369,0,0,0.121,0.126,0.1265,0.1283,0.1306,0.132,0.133,0.1355,0.1392,0.1388,0.1451,0.1417,0.144,0.1445,0.1443,0.1498,0.167,0.1523,0.1528,0.1706,0.1986,0.2025,0.2064,0.1673,0.1677,0.168,0.2101,0,0.1221,0.1263,0.1283,0.1311,0.1333,0.1344,0.1365,0.1385,0.1411,0.1476,0.1477,0.1534,0.1458,0.1499,0.1537,0.1646,0.1744,0.1563,0.1911,0.1923,0.1959,0.2096,0.2072,0.2443,0.2132,0.2137,0.2141,0,0.1247,0.1269,0.1301,0.1344,0.1356,0.1372,0.1423,0.1444,0.1518,0.1553,0.1601,0.1639,0.1721,0.1655,0.1869,0.1772,0.1879,0.1949,0.1967,0.2014,0.2017,0.234,0.2512,0.2417,0.219,0.2186,0.2182,0,0.1246,0.1288,0.1312,0.1324,0.1368,0.1387,0.141,0.1469,0.1522,0.1631,0.172,0.1802,0.1914,0.2012,0.2127,0.2042,0.24,0.2313,0.2461,0.2469,0.252,0.2523,0.2641,0.2485,0.2484,0.2482,0.2481,0,0.1264,0.1285,0.1317,0.1332,0.1368,0.14,0.1463,0.1504,0.162,0.1728,0.1774,0.1913,0.2008,0.2198,0.2254,0.2494,0.2528,0.2519,0.2582,0.2526,0.2526,0.2496,0.2405,0.2498,0.2495,0.2492,0.2489,0,0.1275,0.1292,0.1318,0.1357,0.1371,0.1399,0.1487,0.1567,0.1665,0.1828,0.1888,0.2087,0.2345,0.2459,0.2701,0.2714,0.2836,0.2957,0.2916,0.2962,0.2944,0.2854,0.2948,0.2855,0.3219,0.3222,0.3225,0,0.1297,0.1314,0.133,0.1364,0.1386,0.1433,0.1497,0.1574,0.1685,0.1935,0.2055,0.2342,0.2554,0.2945,0.3035,0.3246,0.3041,0.3325,0.3097,0.2993,0.2941,0.2729,0.2624,0.3223,0.3225,0.3228,0.3229,0,0.1361,0.1354,0.1393,0.1442,0.1494,0.1528,0.1632,0.1712,0.1857,0.2019,0.231,0.2503,0.2868,0.3088,0.333,0.3411,0.3154,0.3375,0.3278,0.2974,0.2746,0.2669,0.2934,0.3249,0.3247,0.3245,0.3244,0.3244,0.1449,0.1477,0.1544,0.1584,0.1626,0.1685,0.1727,0.1866,0.2035,0.2282,0.2454,0.2726,0.3028,0.3366,0.3427,0.348,0.3324,0.3399,0.3327,0.3144,0.2932,0.326,0.3598,0.3598,0.3598,0.3598,0.3598,0,0.1609,0.1653,0.1707,0.1762,0.1811,0.1791,0.1887,0.1941,0.2131,0.2359,0.2585,0.2911,0.317,0.3343,0.35,0.3429,0.322,0.3348,0.3028,0.2942,0.3305,0.3175,0.3419,0.3419,0.3419,0.3419,0.3419,0.3419,0.1741,0.1844,0.1846,0.1962,0.1975,0.2028,0.2062,0.2118,0.225,0.2481,0.2656,0.2812,0.3097,0.3365,0.3375,0.3308,0.2993,0.2947,0.2824,0.306,0.3055,0.305,0.2906,0.3089,0.3089,0.2368,0.2363,0.2359]},{"header":{"parameterUnit":"m.s-1","parameterCategory":2,"la1":30.2991,"la2":30.254,"lo1":-89.0895,"lo2":-89.0444,"dy":0.0017,"dx":0.0017,"nx":28,"ny":28,"refTime":"2025-11-08T09:00:00:Z","depth":"0","parameterNumber":3,"parameterNumberName":"V-component_of_CURRENTS"},"data":[0,0,0,0,0,0,0,0,0,0,0,0,0,0,0,0,0,0,0,0,0,0,0,0,0,0,0,0,0,0,0,0,0,0,0,0,0,0,0,0,0,0,0,0,0,0,0,0,0,0,0,0,0,0,0,0,0,0,-0.0313,-0.0313,0,-0.035,-0.035,-0.0351,-0.0371,-0.0371,-0.0371,-0.0371,-0.0404,-0.0405,-0.0405,0,0,0,0,0,0,0,0,0,0,0,0,0,-0.0266,-0.0267,-0.0313,-0.0313,-0.0313,-0.035,-0.035,-0.0351,-0.0371,-0.0371,-0.0371,-0.0371,-0.0404,-0.0405,-0.0406,0,0,0,0,0,0,0,0,0,0,0,0,0,-0.0293,-0.0267,-0.0312,-0.0328,-0.033,-0.035,-0.035,-0.0351,-0.0371,-0.0371,-0.0371,-0.0371,-0.0403,-0.0405,-0.0406,-0.0411,0,0,-0.0409,-0.041,0,0,0,0,0,0,0,0,-0.0291,-0.0294,-0.0325,-0.0327,-0.0329,-0.0356,-0.0346,-0.0371,-0.0371,-0.0355,-0.0371,-0.0371,-0.0387,-0.039,-0.0397,-0.0413,-0.0414,-0.041,-0.041,-0.0411,-0.0411,0,0,0,0,0,0,0,-0.0289,-0.0293,-0.0327,-0.0326,-0.0328,-0.0336,-0.0339,-0.0351,-0.037,-0.0357,-0.0358,-0.0363,-0.0388,-0.0395,-0.0397,-0.0414,-0.0409,-0.0411,-0.0411,-0.0412,-0.0432,-0.0432,0,0,0,0,0,0,-0.0285,-0.0291,-0.0326,-0.0328,-0.031,-0.0336,-0.0341,-0.0347,-0.037,-0.0374,-0.0362,-0.0363,-0.0393,-0.0396,-0.0399,-0.0415,-0.0411,-0.0412,-0.0413,-0.0432,-0.0432,-0.0432,0,0,0,0,0,0,-0.0284,-0.0288,-0.0324,-0.0311,-0.0316,-0.0337,-0.0344,-0.0348,-0.0356,-0.0375,-0.0378,-0.0367,-0.0393,-0.0397,-0.041,-0.0416,-0.0412,-0.0414,-0.0433,-0.0432,-0.0432,-0.0441,0,0,0,0,0,0,-0.0282,-0.0287,-0.029,-0.031,-0.0316,-0.0337,-0.0344,-0.0348,-0.0358,-0.036,-0.0379,-0.0383,-0.0394,-0.0408,-0.0411,-0.0417,-0.0414,-0.0433,-0.0433,-0.0432,-0.0441,-0.0441,-0.0441,0,0,0,0,0,-0.028,-0.0287,-0.029,-0.0294,-0.032,-0.0337,-0.0341,-0.0356,-0.0358,-0.0363,-0.0375,-0.0382,-0.0408,-0.0409,-0.0413,-0.0419,-0.0433,-0.0433,-0.0432,-0.0441,-0.0441,-0.0441,0,0,0,0,0,0,-0.0268,-0.029,-0.0294,-0.0306,-0.0319,-0.0341,-0.0348,-0.0355,-0.0368,-0.0369,-0.0384,-0.0388,-0.0401,-0.0405,-0.0406,-0.0422,-0.042,-0.042,-0.0425,-0.0425,-0.0425,-0.0413,-0.0415,0,0,0,0,0,-0.0265,-0.0277,-0.0295,-0.0305,-0.0311,-0.0327,-0.0336,-0.0345,-0.0359,-0.0366,-0.0378,-0.0389,-0.0401,-0.0409,-0.0419,-0.043,-0.0404,-0.0434,-0.0434,-0.0434,-0.0425,-0.0397,-0.0393,-0.0431,-0.0431,-0.0431,0,0,-0.0264,-0.0277,-0.0284,-0.0303,-0.0314,-0.0328,-0.0333,-0.0346,-0.0356,-0.0367,-0.0383,-0.0391,-0.0403,-0.0417,-0.0423,-0.0423,-0.0406,-0.0434,-0.0434,-0.0425,-0.0396,-0.0392,-0.0389,-0.043,-0.0431,-0.0431,0,0,-0.027,-0.0277,-0.029,-0.0301,-0.0317,-0.0327,-0.0329,-0.0348,-0.0355,-0.0369,-0.0379,-0.0388,-0.0407,-0.0418,-0.0426,-0.043,-0.0407,-0.0432,-0.0427,-0.04,-0.0396,-0.0393,-0.0339,-0.0331,-0.0434,-0.0434,-0.0434,0,-0.0265,-0.0282,-0.0295,-0.0309,-0.0314,-0.0326,-0.0335,-0.0348,-0.0367,-0.0359,-0.0374,-0.0382,-0.0408,-0.0411,-0.0424,-0.0432,-0.0398,-0.0429,-0.04,-0.0396,-0.0392,-0.0338,-0.0328,-0.0434,-0.0434,-0.0434,-0.0434,0,-0.0283,-0.0293,-0.03,-0.032,-0.0328,-0.0337,-0.0352,-0.0353,-0.0358,-0.0362,-0.0358,-0.0385,-0.0378,-0.0401,-0.0425,-0.0412,-0.0388,-0.0402,-0.0399,-0.0389,-0.0332,-0.0322,-0.0435,-0.0435,-0.0435,-0.0434,0,0,-0.028,-0.0307,-0.0309,-0.0299,-0.033,-0.0324,-0.0343,-0.0341,-0.0302,-0.0345,-0.0298,-0.0366,-0.0353,-0.0361,-0.038,-0.0383,-0.0348,-0.0388,-0.0386,-0.0332,-0.0257,-0.0267,-0.0257,-0.0354,-0.0353,-0.0352,-0.022,0,-0.0285,-0.0296,-0.0318,-0.0313,-0.0309,-0.0319,-0.0313,-0.031,-0.0296,-0.025,-0.0286,-0.0248,-0.0344,-0.0311,-0.0343,-0.0322,-0.0325,-0.038,-0.0275,-0.0271,-0.0282,-0.0248,-0.0262,-0.0149,-0.0211,-0.0209,-0.0208,0,-0.0294,-0.0292,-0.0292,-0.0264,-0.0261,-0.0256,-0.0202,-0.0195,-0.0158,-0.0137,-0.0132,-0.0128,-0.0136,-0.0205,-0.0207,-0.023,-0.0253,-0.0261,-0.0255,-0.0255,-0.0264,-0.0172,-0.0128,-0.0314,-0.0193,-0.0194,-0.0195,0,-0.0254,-0.0265,-0.0251,-0.0251,-0.0234,-0.0213,-0.0192,-0.0152,-0.0087,-0.0035,0.0048,0.0009,0.007,-0.0002,-0.0054,-0.0109,-0.0028,-0.0095,-0.0128,-0.0127,-0.0113,-0.0114,-0.0237,-0.0101,-0.0102,-0.0102,-0.0102,0,-0.024,-0.0218,-0.0219,-0.0203,-0.0134,-0.0146,-0.005,-0.0024,0.0064,0.019,0.0131,0.0248,0.0127,0.0149,0.0035,0.0007,0.0045,-0.0107,-0.0095,-0.0116,-0.0118,-0.0259,-0.0364,-0.0097,-0.0098,-0.0099,-0.01,0,-0.0178,-0.0203,-0.0155,-0.0128,-0.011,-0.0043,0.0056,0.0148,0.021,0.0385,0.0422,0.0479,0.0506,0.0381,0.0332,0.0182,0.003,0.009,0.0084,0.0089,-0.0167,-0.027,-0.0309,-0.0384,0.0073,0.0074,0.0074,0,-0.0132,-0.0115,-0.0071,-0.0013,0.001,0.0093,0.0169,0.0221,0.0343,0.0545,0.0664,0.0743,0.0837,0.0748,0.0486,0.0311,0.0116,0.0168,0.0019,-0.017,-0.0275,-0.0338,-0.0405,0.0054,0.0054,0.0054,0.0054,0,-0.0004,-0.0001,0.0053,0.0146,0.0225,0.0309,0.0427,0.054,0.0651,0.0816,0.1063,0.1163,0.1063,0.0908,0.0626,0.0451,0.0025,0.0164,-0.0027,-0.0299,-0.0374,-0.0443,-0.0029,0.0056,0.0056,0.0056,0.0056,0.0056,0.0139,0.0206,0.0272,0.0361,0.0442,0.0559,0.0656,0.081,0.1022,0.1301,0.1359,0.1564,0.1259,0.0877,0.0598,0.0047,0.005,-0.0132,-0.023,-0.0267,-0.0395,0.0026,0.0105,0.0105,0.0105,0.0105,0.0105,0,0.0345,0.0397,0.0495,0.0605,0.0702,0.0687,0.0864,0.0987,0.1255,0.1521,0.1734,0.174,0.132,0.0844,0.0107,-0.0274,-0.0438,-0.0486,-0.061,-0.0654,-0.0266,-0.0331,-0.0348,-0.0348,-0.0348,-0.0348,-0.0348,-0.0347,0.0482,0.0612,0.0627,0.0823,0.0883,0.1018,0.1108,0.1308,0.1519,0.1874,0.205,0.2152,0.1791,0.0443,-0.046,-0.0671,-0.0948,-0.0984,-0.1105,-0.0904,-0.088,-0.0857,-0.0946,-0.1092,-0.1093,-0.146,-0.1464,-0.1467]}],[{"header":{"parameterUnit":"m.s-1","parameterCategory":2,"la1":30.2991,"la2":30.254,"lo1":-89.0895,"lo2":-89.0444,"dy":0.0017,"dx":0.0017,"nx":28,"ny":28,"refTime":"2025-11-08T09:00:00:Z","depth":"2","parameterNumber":2,"parameterNumberName":"U-component_of_CURRENTS"},"data":[0,0,0,0,0,0,0,0,0,0,0,0,0,0,0,0,0,0,0,0,0,0,0,0,0,0,0,0,0,0,0,0,0,0,0,0,0,0,0,0,0,0,0,0,0,0,0,0,0,0,0,0,0,0,0,0,0,0,0.0807,0.0808,0,0.0835,0.0835,0.0835,0.0866,0.0867,0.0867,0.0867,0.0903,0.0903,0.0904,0,0,0,0,0,0,0,0,0,0,0,0,0,0.0736,0.0738,0.0807,0.0808,0.0808,0.0834,0.0835,0.0835,0.0866,0.0867,0.0867,0.0868,0.0902,0.0903,0.0904,0,0,0,0,0,0,0,0,0,0,0,0,0,0.0766,0.0738,0.0807,0.0826,0.0828,0.0834,0.0835,0.0835,0.0866,0.0867,0.0867,0.0868,0.0902,0.0903,0.0904,0.0895,0,0,0.0906,0.0906,0,0,0,0,0,0,0,0,0.0764,0.0769,0.0823,0.0825,0.0827,0.0848,0.0823,0.0856,0.0866,0.0852,0.0868,0.0868,0.0884,0.0887,0.089,0.0897,0.0898,0.0906,0.0907,0.0907,0.0907,0,0,0,0,0,0,0,0.0762,0.0767,0.0818,0.0824,0.0826,0.0818,0.0823,0.0829,0.0864,0.0853,0.0855,0.0858,0.0886,0.089,0.0891,0.0899,0.0906,0.0907,0.0907,0.0908,0.0945,0.0946,0,0,0,0,0,0,0.076,0.0766,0.0817,0.0819,0.0797,0.0819,0.0825,0.0841,0.0864,0.0868,0.0857,0.0859,0.0888,0.089,0.0893,0.093,0.0907,0.0908,0.0908,0.0945,0.0945,0.0946,0,0,0,0,0,0,0.0759,0.0765,0.0816,0.0792,0.0798,0.082,0.0837,0.0841,0.0859,0.0867,0.0872,0.0873,0.0888,0.0892,0.0917,0.093,0.0908,0.0909,0.0944,0.0945,0.0946,0.0976,0,0,0,0,0,0,0.0757,0.0765,0.0779,0.0792,0.0799,0.0835,0.0836,0.0841,0.0859,0.0862,0.0882,0.0885,0.0889,0.0916,0.0918,0.0931,0.0909,0.0943,0.0945,0.0945,0.0974,0.0977,0.098,0,0,0,0,0,0.0755,0.0761,0.078,0.0786,0.0817,0.0836,0.0839,0.0855,0.0859,0.0873,0.0888,0.0885,0.0924,0.0917,0.0919,0.0933,0.0943,0.0944,0.0945,0.0973,0.0977,0.098,0,0,0,0,0,0,0.0735,0.0765,0.0786,0.0803,0.0828,0.0841,0.0851,0.0861,0.0883,0.0888,0.0895,0.09,0.0924,0.0924,0.0917,0.0946,0.0931,0.0933,0.0951,0.0955,0.0958,0.0953,0.091,0,0,0,0,0,0.0739,0.0756,0.0786,0.0803,0.0818,0.0838,0.0848,0.0862,0.0879,0.089,0.09,0.0913,0.0927,0.0939,0.0947,0.0965,0.1006,0.0974,0.0977,0.098,0.0977,0.1058,0.107,0.095,0.095,0.095,0,0,0.0736,0.0754,0.0765,0.08,0.0821,0.0836,0.0847,0.0868,0.0884,0.0889,0.0913,0.0923,0.0933,0.0956,0.0966,0.0961,0.1041,0.0981,0.0984,0.0979,0.1061,0.1073,0.1084,0.0951,0.0951,0.0951,0,0,0.0731,0.076,0.0776,0.0786,0.0818,0.084,0.0849,0.0874,0.0897,0.0917,0.0927,0.0947,0.0962,0.0978,0.0986,0.1009,0.1053,0.1013,0.103,0.111,0.1121,0.1131,0.1228,0.1246,0.1018,0.1018,0.1018,0,0.073,0.0757,0.0782,0.0787,0.0807,0.0842,0.0865,0.0881,0.0909,0.0935,0.0928,0.0969,0.0969,0.1011,0.1014,0.1016,0.1081,0.1016,0.1116,0.1127,0.1137,0.1233,0.1253,0.102,0.102,0.102,0.1019,0,0.0726,0.0751,0.0758,0.079,0.0813,0.0836,0.0869,0.0897,0.0924,0.0942,0.099,0.0999,0.1032,0.1028,0.1023,0.1091,0.1124,0.1112,0.111,0.1151,0.125,0.127,0.1022,0.1022,0.1021,0.1021,0,0,0.0727,0.0758,0.0762,0.079,0.0822,0.0847,0.088,0.094,0.0978,0.0992,0.1059,0.1052,0.1072,0.1082,0.1093,0.1139,0.1259,0.1155,0.1158,0.1257,0.1471,0.1472,0.1495,0.1281,0.1283,0.1286,0.1524,0,0.0736,0.0763,0.0775,0.0816,0.0849,0.0881,0.0914,0.0957,0.1004,0.1069,0.1093,0.1149,0.1093,0.1135,0.1169,0.1246,0.1309,0.1197,0.141,0.1416,0.1418,0.1516,0.1366,0.1563,0.1544,0.1547,0.155,0,0.0738,0.0764,0.081,0.0867,0.0885,0.0908,0.1001,0.1033,0.111,0.1153,0.1203,0.1233,0.1309,0.1261,0.1403,0.1347,0.1406,0.1448,0.1459,0.1458,0.1454,0.1513,0.1601,0.1584,0.1581,0.1579,0.1576,0,0.0754,0.0796,0.085,0.0856,0.0912,0.0951,0.0998,0.1062,0.1118,0.1233,0.13,0.137,0.147,0.1519,0.1588,0.1525,0.1765,0.1697,0.1753,0.1756,0.1664,0.1653,0.1803,0.1802,0.1802,0.1801,0.1801,0,0.0764,0.0809,0.0863,0.0877,0.0946,0.0982,0.1064,0.1115,0.1215,0.1292,0.1358,0.1455,0.1544,0.167,0.1679,0.1809,0.1854,0.1786,0.1824,0.1672,0.1659,0.1684,0.1667,0.181,0.1808,0.1807,0.1805,0,0.0781,0.0811,0.0867,0.0928,0.0952,0.1006,0.1098,0.116,0.1257,0.1377,0.1431,0.1596,0.177,0.1851,0.2002,0.1972,0.2057,0.2086,0.1914,0.1925,0.1968,0.195,0.2172,0.2175,0.2176,0.2178,0.2179,0,0.0802,0.0827,0.0891,0.0929,0.0963,0.1039,0.1093,0.118,0.1244,0.144,0.1508,0.1739,0.1858,0.2111,0.2152,0.2243,0.2199,0.2128,0.194,0.1996,0.201,0.1988,0.1968,0.1853,0.1852,0.185,0.1849,0,0.0832,0.0852,0.0892,0.095,0.1011,0.1076,0.1156,0.1193,0.1306,0.1408,0.1583,0.1705,0.1986,0.2056,0.2208,0.2191,0.2088,0.2106,0.2264,0.1764,0.1708,0.1717,0.1705,0.1838,0.184,0.184,0.1841,0.1841,0.0856,0.0886,0.0922,0.0955,0.1038,0.1089,0.1091,0.1181,0.1255,0.1369,0.1545,0.1699,0.1846,0.2011,0.2018,0.2036,0.2128,0.199,0.1988,0.1989,0.189,0.1839,0.1978,0.1979,0.1981,0.1982,0.1984,0,0.0831,0.0868,0.0924,0.0952,0.0988,0.1062,0.1109,0.1094,0.112,0.1326,0.145,0.1469,0.1604,0.1753,0.179,0.1819,0.1726,0.1722,0.1582,0.1598,0.161,0.1484,0.1468,0.1466,0.1464,0.1463,0,0,0.0845,0.0831,0.0824,0.0844,0.0904,0.0915,0.0912,0.0945,0.1041,0.112,0.1237,0.1481,0.1676,0.1528,0.1553,0.1527,0.1521,0.146,0.188,0.1728,0.1737,0.1787,0.1615,0,0,0,0,0]},{"header":{"parameterUnit":"m.s-1","parameterCategory":2,"la1":30.2991,"la2":30.254,"lo1":-89.0895,"lo2":-89.0444,"dy":0.0017,"dx":0.0017,"nx":28,"ny":28,"refTime":"2025-11-08T09:00:00:Z","depth":"2","parameterNumber":3,"parameterNumberName":"V-component_of_CURRENTS"},"data":[0,0,0,0,0,0,0,0,0,0,0,0,0,0,0,0,0,0,0,0,0,0,0,0,0,0,0,0,0,0,0,0,0,0,0,0,0,0,0,0,0,0,0,0,0,0,0,0,0,0,0,0,0,0,0,0,0,0,-0.0353,-0.0354,0,-0.0385,-0.0385,-0.0386,-0.041,-0.041,-0.0411,-0.0411,-0.0451,-0.0452,-0.0453,0,0,0,0,0,0,0,0,0,0,0,0,0,-0.0304,-0.0305,-0.0353,-0.0354,-0.0354,-0.0385,-0.0385,-0.0386,-0.041,-0.041,-0.0411,-0.0411,-0.0451,-0.0452,-0.0453,0,0,0,0,0,0,0,0,0,0,0,0,0,-0.033,-0.0305,-0.0353,-0.037,-0.0372,-0.0385,-0.0385,-0.0386,-0.041,-0.041,-0.0411,-0.0411,-0.045,-0.0452,-0.0453,-0.0454,0,0,-0.0457,-0.0457,0,0,0,0,0,0,0,0,-0.0328,-0.0331,-0.0367,-0.0369,-0.0371,-0.0394,-0.0383,-0.0409,-0.041,-0.0396,-0.0411,-0.0411,-0.0433,-0.0435,-0.044,-0.0455,-0.0457,-0.0457,-0.0458,-0.0458,-0.0459,0,0,0,0,0,0,0,-0.0326,-0.033,-0.0366,-0.0368,-0.037,-0.0373,-0.0377,-0.0388,-0.0412,-0.0397,-0.0399,-0.0402,-0.0434,-0.0439,-0.0441,-0.0458,-0.0457,-0.0458,-0.0459,-0.0459,-0.0484,-0.0484,0,0,0,0,0,0,-0.0323,-0.0329,-0.0365,-0.0367,-0.035,-0.0373,-0.0378,-0.0386,-0.0412,-0.0416,-0.0402,-0.0403,-0.0437,-0.044,-0.0443,-0.0459,-0.0458,-0.0459,-0.046,-0.0485,-0.0484,-0.0484,0,0,0,0,0,0,-0.0322,-0.0326,-0.0364,-0.0348,-0.0353,-0.0374,-0.0383,-0.0387,-0.0394,-0.0415,-0.042,-0.0406,-0.0437,-0.0441,-0.0458,-0.046,-0.046,-0.0461,-0.0485,-0.0485,-0.0484,-0.0483,0,0,0,0,0,0,-0.032,-0.0326,-0.0329,-0.0348,-0.0354,-0.0372,-0.0383,-0.0387,-0.0396,-0.0398,-0.042,-0.0424,-0.0438,-0.0456,-0.0459,-0.0462,-0.0462,-0.0485,-0.0485,-0.0484,-0.0483,-0.0483,-0.0482,0,0,0,0,0,-0.0318,-0.0322,-0.0329,-0.0333,-0.0359,-0.0372,-0.0375,-0.0391,-0.0396,-0.0399,-0.0416,-0.0423,-0.0457,-0.0457,-0.0461,-0.0464,-0.0485,-0.0485,-0.0484,-0.0483,-0.0483,-0.0482,0,0,0,0,0,0,-0.03,-0.0325,-0.0334,-0.0344,-0.0357,-0.0376,-0.0381,-0.0389,-0.0404,-0.0408,-0.0426,-0.0431,-0.0446,-0.0453,-0.0452,-0.047,-0.047,-0.0471,-0.0468,-0.0468,-0.0468,-0.0456,-0.0463,0,0,0,0,0,-0.0298,-0.0308,-0.0329,-0.0337,-0.0344,-0.0361,-0.0368,-0.0379,-0.0395,-0.0402,-0.0417,-0.0432,-0.0447,-0.0456,-0.0469,-0.0479,-0.0475,-0.0482,-0.0481,-0.0481,-0.0473,-0.0471,-0.0469,-0.0484,-0.0484,-0.0484,0,0,-0.0294,-0.0307,-0.0314,-0.0333,-0.0346,-0.0356,-0.0367,-0.0377,-0.0386,-0.0403,-0.0419,-0.0432,-0.0449,-0.0464,-0.047,-0.0471,-0.0475,-0.0481,-0.0481,-0.0473,-0.047,-0.0469,-0.0468,-0.0484,-0.0484,-0.0484,0,0,-0.029,-0.0302,-0.0312,-0.032,-0.0337,-0.035,-0.0352,-0.0371,-0.0383,-0.0398,-0.0413,-0.0426,-0.0448,-0.0461,-0.0471,-0.0474,-0.0474,-0.0477,-0.0468,-0.0466,-0.0464,-0.0463,-0.0458,-0.0456,-0.0477,-0.0477,-0.0477,0,-0.0284,-0.0298,-0.0315,-0.0322,-0.0327,-0.0346,-0.0353,-0.0367,-0.0388,-0.0389,-0.0402,-0.0424,-0.0446,-0.0457,-0.0465,-0.0474,-0.0469,-0.047,-0.0465,-0.0464,-0.0463,-0.0457,-0.0456,-0.0477,-0.0477,-0.0477,-0.0477,0,-0.0284,-0.0296,-0.03,-0.0318,-0.0326,-0.0332,-0.0353,-0.0359,-0.0373,-0.0382,-0.0392,-0.042,-0.0425,-0.0442,-0.046,-0.0461,-0.0459,-0.0466,-0.0466,-0.0461,-0.0456,-0.0454,-0.0477,-0.0477,-0.0477,-0.0477,0,0,-0.0272,-0.0297,-0.0299,-0.0296,-0.0322,-0.032,-0.034,-0.035,-0.0334,-0.0369,-0.0349,-0.0401,-0.0401,-0.0411,-0.043,-0.0441,-0.0442,-0.0451,-0.0451,-0.0445,-0.0431,-0.0469,-0.047,-0.0446,-0.0446,-0.0445,-0.0431,0,-0.0269,-0.0275,-0.0295,-0.0293,-0.0294,-0.031,-0.0312,-0.032,-0.0328,-0.0309,-0.0343,-0.0329,-0.0393,-0.0378,-0.0408,-0.0421,-0.0436,-0.0445,-0.0436,-0.0436,-0.047,-0.0469,-0.0455,-0.0444,-0.0429,-0.0429,-0.0429,0,-0.0266,-0.0265,-0.0267,-0.026,-0.026,-0.0257,-0.0239,-0.0241,-0.0234,-0.0232,-0.0242,-0.0253,-0.0276,-0.0316,-0.0366,-0.0366,-0.04,-0.0423,-0.0422,-0.0455,-0.047,-0.0446,-0.0441,-0.0426,-0.0426,-0.0426,-0.0426,0,-0.0233,-0.0245,-0.0239,-0.0238,-0.0235,-0.0225,-0.0218,-0.0211,-0.0179,-0.0163,-0.0119,-0.0172,-0.0141,-0.0224,-0.0292,-0.0321,-0.0327,-0.0369,-0.0438,-0.0441,-0.0425,-0.0428,-0.0397,-0.0397,-0.0397,-0.0397,-0.0397,0,-0.0214,-0.0206,-0.0214,-0.0198,-0.0157,-0.0174,-0.0121,-0.0114,-0.0074,-0.0014,-0.006,-0.0013,-0.0111,-0.0134,-0.0245,-0.0329,-0.0293,-0.0433,-0.044,-0.0426,-0.0428,-0.0409,-0.0411,-0.0397,-0.0397,-0.0397,-0.0397,0,-0.0174,-0.0192,-0.0163,-0.0149,-0.0138,-0.0097,-0.0041,0.0009,0.0036,0.0119,0.0138,0.0142,0.0101,-0.0007,-0.0097,-0.0228,-0.0329,-0.0363,-0.034,-0.0348,-0.0462,-0.0463,-0.0462,-0.0463,-0.0464,-0.0465,-0.0466,0,-0.0152,-0.0139,-0.0106,-0.0069,-0.0056,-0.0003,0.0043,0.0069,0.0126,0.0206,0.026,0.027,0.0255,0.0107,-0.0084,-0.0268,-0.0292,-0.0387,-0.0465,-0.0461,-0.0468,-0.0468,-0.0469,-0.0437,-0.0437,-0.0438,-0.0438,0,-0.0092,-0.0086,-0.0058,0.0005,0.0058,0.0133,0.0195,0.0254,0.0295,0.0364,0.044,0.0436,0.0312,0.0141,-0.0091,-0.0236,-0.0375,-0.0404,-0.0371,-0.0437,-0.0441,-0.0447,-0.0447,-0.0441,-0.0441,-0.0441,-0.044,-0.044,-0.0044,-0.001,0.0015,0.0066,0.0151,0.0247,0.0311,0.0387,0.0479,0.058,0.055,0.0574,0.0358,0.0078,-0.0151,-0.0367,-0.0386,-0.0497,-0.0494,-0.0491,-0.0505,-0.0512,-0.0527,-0.0528,-0.0528,-0.0528,-0.0528,0,-0.0011,0.0007,0.0072,0.0134,0.0232,0.0275,0.0396,0.0477,0.0585,0.0688,0.0727,0.054,0.0328,0.0122,-0.0206,-0.046,-0.0472,-0.0531,-0.0491,-0.0488,-0.0485,-0.0497,-0.0518,-0.0518,-0.0519,-0.0519,0,0,0.0008,0.0031,0.0037,0.0158,0.0245,0.0388,0.047,0.0617,0.0728,0.0824,0.0852,0.0774,0.047,0.0224,-0.0107,-0.0281,-0.0321,-0.0325,-0.0315,-0.0225,-0.0218,-0.0456,-0.0471,0,0,0,0,0]}],[{"header":{"parameterUnit":"m.s-1","parameterCategory":2,"la1":30.2991,"la2":30.254,"lo1":-89.0895,"lo2":-89.0444,"dy":0.0017,"dx":0.0017,"nx":28,"ny":28,"refTime":"2025-11-08T09:00:00:Z","depth":"4","parameterNumber":2,"parameterNumberName":"U-component_of_CURRENTS"},"data":[0,0,0,0,0,0,0,0,0,0,0,0,0,0,0,0,0,0,0,0,0,0,0,0,0,0,0,0,0,0,0,0,0,0,0,0,0,0,0,0,0,0,0,0,0,0,0,0,0,0,0,0,0,0,0,0,0,0,0.031,0.031,0,0.0341,0.0341,0.0341,0.0366,0.0366,0.0367,0.0367,0.0393,0.0394,0.0394,0,0,0,0,0,0,0,0,0,0,0,0,0,0.0266,0.0266,0.031,0.031,0.0311,0.0341,0.0341,0.0341,0.0366,0.0366,0.0367,0.0367,0.0393,0.0394,0.0394,0,0,0,0,0,0,0,0,0,0,0,0,0,0.0289,0.0267,0.031,0.0327,0.0329,0.034,0.0341,0.0341,0.0366,0.0366,0.0367,0.0367,0.0393,0.0394,0.0394,0.0388,0,0,0.0396,0.0396,0,0,0,0,0,0,0,0,0.0287,0.029,0.0324,0.0326,0.0328,0.0351,0.0335,0.0357,0.0366,0.0351,0.0367,0.0368,0.0379,0.0381,0.0384,0.0389,0.039,0.0396,0.0396,0.0397,0.0397,0,0,0,0,0,0,0,0.0286,0.0289,0.0321,0.0325,0.0327,0.0331,0.0335,0.0339,0.0361,0.0352,0.0354,0.0359,0.038,0.0383,0.0385,0.039,0.0396,0.0396,0.0397,0.0397,0.0436,0.0437,0,0,0,0,0,0,0.0284,0.0288,0.032,0.0322,0.031,0.0332,0.0336,0.0342,0.0361,0.0365,0.0359,0.036,0.0382,0.0384,0.0386,0.0425,0.0397,0.0397,0.0397,0.0435,0.0436,0.0437,0,0,0,0,0,0,0.0283,0.0286,0.0319,0.0306,0.0311,0.0332,0.0339,0.0343,0.0361,0.0366,0.037,0.0375,0.0383,0.0385,0.0406,0.0424,0.0397,0.0398,0.0435,0.0436,0.0437,0.0474,0,0,0,0,0,0,0.0281,0.0286,0.0293,0.0306,0.0311,0.0335,0.0339,0.0343,0.0362,0.0365,0.0381,0.0383,0.0383,0.0405,0.0406,0.0425,0.0398,0.0434,0.0435,0.0436,0.0472,0.0476,0.048,0,0,0,0,0,0.0279,0.0286,0.0293,0.0297,0.0319,0.0336,0.0339,0.0355,0.0363,0.0373,0.0387,0.0383,0.0414,0.0406,0.0407,0.0427,0.0433,0.0435,0.0436,0.047,0.0475,0.0479,0,0,0,0,0,0,0.0269,0.0289,0.0298,0.031,0.0326,0.034,0.0352,0.0362,0.038,0.0387,0.0391,0.0395,0.0417,0.0416,0.0407,0.0441,0.0423,0.0425,0.0448,0.0453,0.0457,0.0467,0.0399,0,0,0,0,0,0.027,0.0282,0.03,0.0311,0.0322,0.0339,0.0349,0.0362,0.0378,0.0387,0.0398,0.0411,0.0421,0.0434,0.0438,0.0459,0.0469,0.0472,0.0476,0.048,0.0488,0.052,0.0528,0.0442,0.0442,0.0442,0,0,0.0265,0.0281,0.0286,0.031,0.0325,0.0345,0.0347,0.0368,0.039,0.0386,0.0419,0.0422,0.0428,0.0451,0.0461,0.0457,0.051,0.0481,0.0484,0.0492,0.0522,0.0531,0.0538,0.0443,0.0443,0.0443,0,0,0.0265,0.0282,0.0292,0.0311,0.0339,0.0354,0.0363,0.0387,0.0406,0.0431,0.0436,0.0454,0.0469,0.0483,0.049,0.0519,0.0524,0.0519,0.0556,0.0586,0.0594,0.0601,0.0627,0.0636,0.0528,0.0528,0.0528,0,0.0261,0.0281,0.0297,0.0317,0.0339,0.0361,0.0383,0.0403,0.0431,0.0454,0.0447,0.0485,0.0486,0.0524,0.0535,0.0529,0.0547,0.0538,0.0593,0.0599,0.0606,0.0631,0.0641,0.053,0.053,0.053,0.053,0,0.0267,0.0291,0.0301,0.0337,0.0361,0.0384,0.0417,0.0446,0.0469,0.0489,0.0529,0.0533,0.0559,0.0561,0.0557,0.0605,0.0603,0.0589,0.0582,0.0617,0.0641,0.065,0.0533,0.0532,0.0532,0.0531,0,0,0.024,0.0295,0.0301,0.0328,0.0378,0.0397,0.0444,0.0492,0.053,0.0553,0.0599,0.0616,0.0623,0.0631,0.063,0.0658,0.0712,0.0648,0.0649,0.0678,0.0785,0.0779,0.0788,0.0712,0.0713,0.0715,0.0786,0,0.0244,0.0284,0.0315,0.0362,0.0389,0.0435,0.0477,0.0525,0.0564,0.0611,0.0634,0.0668,0.0649,0.0665,0.069,0.0705,0.0737,0.0694,0.0745,0.0746,0.0739,0.0798,0.072,0.0793,0.0795,0.0796,0.0797,0,0.0241,0.0274,0.0319,0.0389,0.0406,0.0439,0.0521,0.0561,0.0633,0.0662,0.0706,0.0724,0.0773,0.0743,0.0802,0.0778,0.0789,0.0797,0.0799,0.0788,0.0757,0.075,0.0814,0.0812,0.0811,0.081,0.0809,0,0.0216,0.0279,0.0319,0.0341,0.0418,0.0457,0.0503,0.0579,0.0629,0.0701,0.0744,0.0791,0.0827,0.0849,0.0873,0.0844,0.0937,0.0895,0.0901,0.09,0.0866,0.0858,0.0942,0.0942,0.0942,0.0942,0.0941,0,0.0211,0.0242,0.0312,0.0334,0.0396,0.045,0.0523,0.0574,0.0656,0.0719,0.0768,0.0821,0.0859,0.0915,0.0911,0.095,0.0972,0.0927,0.0927,0.0879,0.0872,0.0872,0.0863,0.0944,0.0944,0.0943,0.0943,0,0.018,0.0223,0.0274,0.0355,0.0387,0.0431,0.0538,0.0586,0.0666,0.0751,0.078,0.087,0.0947,0.099,0.1039,0.101,0.1034,0.1039,0.1008,0.1001,0.0962,0.0954,0.1046,0.1047,0.1048,0.1048,0.1048,0,0.0168,0.0187,0.0279,0.0318,0.0361,0.0436,0.0489,0.058,0.0634,0.0774,0.0808,0.0926,0.098,0.1053,0.1082,0.1113,0.1093,0.1093,0.1005,0.0987,0.0977,0.0968,0.096,0.1049,0.1049,0.1049,0.1049,0,0.0143,0.0177,0.022,0.0299,0.036,0.0426,0.0508,0.0551,0.0659,0.0738,0.0838,0.0904,0.1004,0.1049,0.1105,0.1105,0.1082,0.1097,0.1094,0.1012,0.0991,0.0979,0.097,0.1051,0.1051,0.1051,0.1051,0,0.0123,0.0146,0.0206,0.0277,0.0342,0.0399,0.0455,0.0538,0.0609,0.0761,0.0791,0.0913,0.0997,0.1049,0.1085,0.1114,0.108,0.1019,0.102,0.1018,0.0978,0.0945,0.1013,0,0,0,0,0,0.0106,0.0132,0.0184,0.0258,0.0317,0.0362,0.0457,0.0512,0.0622,0.0681,0.0742,0.0833,0.0929,0.0983,0.1008,0.1063,0.1072,0.1086,0.0997,0.106,0.1058,0.1014,0,0,0,0,0,0,0.0093,0.0139,0.0167,0.022,0.0264,0.0329,0.0388,0.0467,0.0514,0.0629,0.0689,0.0776,0.0878,0.0906,0.0986,0.1005,0.0933,0.116,0.1158,0.1061,0.106,0.1058,0.1012,0,0,0,0,0]},{"header":{"parameterUnit":"m.s-1","parameterCategory":2,"la1":30.2991,"la2":30.254,"lo1":-89.0895,"lo2":-89.0444,"dy":0.0017,"dx":0.0017,"nx":28,"ny":28,"refTime":"2025-11-08T09:00:00:Z","depth":"4","parameterNumber":3,"parameterNumberName":"V-component_of_CURRENTS"},"data":[0,0,0,0,0,0,0,0,0,0,0,0,0,0,0,0,0,0,0,0,0,0,0,0,0,0,0,0,0,0,0,0,0,0,0,0,0,0,0,0,0,0,0,0,0,0,0,0,0,0,0,0,0,0,0,0,0,0,0.0036,0.0036,0,-0.0003,-0.0003,-0.0004,-0.0057,-0.0058,-0.0059,-0.0059,-0.0137,-0.0139,-0.014,0,0,0,0,0,0,0,0,0,0,0,0,0,0.0041,0.0042,0.0036,0.0036,0.0035,-0.0003,-0.0003,-0.0004,-0.0057,-0.0058,-0.0059,-0.006,-0.0137,-0.0139,-0.014,0,0,0,0,0,0,0,0,0,0,0,0,0,0.0023,0.0042,0.0036,0.0005,0.0002,-0.0003,-0.0004,-0.0004,-0.0057,-0.0058,-0.0059,-0.006,-0.0136,-0.0138,-0.014,-0.0129,0,0,-0.0147,-0.0147,0,0,0,0,0,0,0,0,0.0025,0.0023,0.001,0.0007,0.0004,-0.0025,-0.003,-0.0048,-0.0056,-0.0036,-0.0059,-0.0061,-0.0102,-0.0107,-0.0113,-0.0133,-0.0136,-0.0147,-0.0148,-0.0149,-0.0149,0,0,0,0,0,0,0,0.0026,0.0024,0.0019,0.001,0.0006,-0.0015,-0.0018,-0.0034,-0.0063,-0.0037,-0.0041,-0.0043,-0.0104,-0.011,-0.0115,-0.0137,-0.0147,-0.0148,-0.015,-0.015,-0.0217,-0.0217,0,0,0,0,0,0,0.0036,0.0026,0.0021,0.0018,0.0013,-0.0014,-0.0018,-0.0016,-0.0062,-0.007,-0.0042,-0.0046,-0.0106,-0.0112,-0.0118,-0.014,-0.0149,-0.0151,-0.0152,-0.0216,-0.0217,-0.0218,0,0,0,0,0,0,0.0036,0.0036,0.0022,0.0022,0.0019,-0.0012,-0.0009,-0.0016,-0.0038,-0.0065,-0.0074,-0.0059,-0.0108,-0.0115,-0.0149,-0.0143,-0.0152,-0.0153,-0.0216,-0.0217,-0.0217,-0.0164,0,0,0,0,0,0,0.0036,0.0036,0.0037,0.0023,0.0019,0.0021,-0.0008,-0.0016,-0.0036,-0.0041,-0.0082,-0.009,-0.0109,-0.0146,-0.0151,-0.0145,-0.0155,-0.0215,-0.0216,-0.0217,-0.0165,-0.0163,-0.0161,0,0,0,0,0,0.0037,0.0055,0.0037,0.0036,0.0022,0.0022,0.0018,-0.0009,-0.0035,-0.0036,-0.0077,-0.009,-0.0156,-0.0148,-0.0154,-0.0149,-0.0214,-0.0216,-0.0217,-0.0166,-0.0163,-0.0161,0,0,0,0,0,0,0.0059,0.0051,0.0031,0.0044,0.003,0.0013,0.0012,-0.0013,-0.0044,-0.0058,-0.0094,-0.0104,-0.0132,-0.0152,-0.0142,-0.0174,-0.0188,-0.0191,-0.0147,-0.0145,-0.0143,-0.013,-0.0157,0,0,0,0,0,0.0064,0.0073,0.0056,0.0064,0.0058,0.0029,0.0022,0.0002,-0.0025,-0.0041,-0.0073,-0.011,-0.0137,-0.0152,-0.0179,-0.0191,-0.0225,-0.0195,-0.0193,-0.0191,-0.0187,-0.024,-0.0242,-0.0222,-0.0222,-0.0222,0,0,0.0076,0.0071,0.0075,0.0068,0.0053,0.006,0.0022,0.0013,0.0012,-0.0043,-0.0063,-0.0104,-0.0142,-0.016,-0.0174,-0.0177,-0.0215,-0.0193,-0.019,-0.0187,-0.0241,-0.0243,-0.0245,-0.0223,-0.0222,-0.0222,0,0,0.0113,0.0097,0.0117,0.0109,0.0091,0.0077,0.0072,0.0045,0.0023,-0.0002,-0.0044,-0.0083,-0.0124,-0.0145,-0.0162,-0.0165,-0.0206,-0.0181,-0.0153,-0.0204,-0.0206,-0.0208,-0.0252,-0.0258,-0.0176,-0.0175,-0.0175,0,0.0124,0.0143,0.0121,0.0136,0.0133,0.0086,0.0101,0.0083,0.0044,0.0019,-0.0004,-0.0088,-0.0112,-0.0139,-0.0139,-0.0157,-0.0199,-0.0153,-0.02,-0.0203,-0.0205,-0.025,-0.0258,-0.0173,-0.0173,-0.0174,-0.0174,0,0.0176,0.0184,0.0196,0.0198,0.0193,0.0197,0.017,0.0148,0.0105,0.0072,0.0016,-0.0032,-0.0087,-0.0095,-0.0114,-0.0146,-0.0174,-0.0192,-0.02,-0.0204,-0.0251,-0.026,-0.017,-0.017,-0.0171,-0.0172,0,0,0.021,0.0229,0.023,0.0224,0.0221,0.0212,0.0216,0.0189,0.0153,0.0111,0.0063,0.0027,-0.0031,-0.0055,-0.0093,-0.0125,-0.0171,-0.0163,-0.0166,-0.0194,-0.0291,-0.0259,-0.0266,-0.0206,-0.0207,-0.0208,-0.0315,0,0.0248,0.0284,0.0289,0.0303,0.0308,0.0276,0.0271,0.0234,0.0184,0.0124,0.0067,0.0003,-0.0006,-0.0055,-0.0082,-0.0166,-0.0193,-0.014,-0.0293,-0.0297,-0.0259,-0.0274,-0.0212,-0.0321,-0.0323,-0.0325,-0.0326,0,0.0287,0.0301,0.0332,0.0319,0.0316,0.0316,0.0263,0.0252,0.0178,0.0131,0.0069,0.0005,-0.0052,-0.0068,-0.018,-0.0154,-0.021,-0.026,-0.0266,-0.026,-0.0281,-0.032,-0.0342,-0.0341,-0.034,-0.0339,-0.0338,0,0.0287,0.0319,0.0335,0.0337,0.0328,0.0316,0.0297,0.024,0.0204,0.0119,0.0069,-0.0011,-0.0077,-0.0152,-0.0237,-0.0229,-0.0365,-0.0372,-0.0388,-0.0388,-0.0407,-0.0404,-0.0439,-0.0439,-0.0438,-0.0438,-0.0438,0,0.0307,0.0311,0.0327,0.0326,0.0306,0.0303,0.0256,0.0222,0.0165,0.0125,0.0058,0.0009,-0.0105,-0.0189,-0.0256,-0.0348,-0.0383,-0.0385,-0.0413,-0.0383,-0.0376,-0.0413,-0.0409,-0.0442,-0.0441,-0.044,-0.044,0,0.0282,0.031,0.0308,0.0308,0.0301,0.027,0.0233,0.0201,0.0153,0.0101,0.0075,-0.001,-0.0111,-0.021,-0.0346,-0.0376,-0.0467,-0.0484,-0.0444,-0.0468,-0.0453,-0.0445,-0.0528,-0.0528,-0.0527,-0.0527,-0.0527,0,0.0265,0.0269,0.0273,0.0263,0.0257,0.0224,0.0207,0.018,0.0168,0.0105,0.0091,-0.0018,-0.0073,-0.0241,-0.0343,-0.0479,-0.0476,-0.0526,-0.0477,-0.0443,-0.0462,-0.0454,-0.0447,-0.0527,-0.0527,-0.0527,-0.0527,0,0.0202,0.0209,0.02,0.0204,0.0192,0.0195,0.0186,0.0178,0.0169,0.0129,0.0101,0.0016,-0.0093,-0.0216,-0.0327,-0.0414,-0.0501,-0.0524,-0.0525,-0.0479,-0.0443,-0.046,-0.0453,-0.0526,-0.0526,-0.0526,-0.0526,0,0.0123,0.0108,0.0114,0.0124,0.0132,0.0179,0.0174,0.0187,0.0177,0.0152,0.0142,0.003,-0.0042,-0.0183,-0.0281,-0.0373,-0.0384,-0.0394,-0.0401,-0.0404,-0.0323,-0.0256,-0.0307,0,0,0,0,0,0.0039,0.004,0.0039,0.0068,0.0104,0.0138,0.0171,0.0184,0.0196,0.0192,0.0175,0.009,-0.0055,-0.0133,-0.0217,-0.0288,-0.0415,-0.0389,-0.0433,-0.0522,-0.0523,-0.0444,0,0,0,0,0,0,-0.0031,-0.004,0.0012,0.0049,0.0085,0.0137,0.018,0.0198,0.0205,0.0197,0.0119,0.0083,-0.0069,-0.0007,-0.0216,-0.0248,-0.0281,-0.0464,-0.0465,-0.0522,-0.0522,-0.0523,-0.0442,0,0,0,0,0]}]]